EHI
5 8 12 12 10 10 10 11 14 16 15 13 12 9 7 5 4 3 3 2 1 2 3 3 1 0 0 0 0 0 0 0 0 0 0 0 0 0 0 0 0 0 0
8 11 13 13 11 10 10 11 13 15 14 12 11 9 8 6 4 3 3 3 1 1 2 2 1 0 0 0 0 0 0 0 0 0 0 0 0 0 0 0 0 0 0
12 13 14 14 13 12 12 12 13 13 12 11 10 8 7 7 5 4 4 3 2 1 1 1 1 0 0 0 0 0 0 0 0 0 0 0 0 0 0 0 0 0 0
13 13 14 16 17 17 17 15 14 13 13 12 10 8 6 5 4 5 4 4 3 2 1 0 0 0 0 0 0 0 0 1 1 1 0 0 0 0 0 0 0 0 0
17 16 17 20 20 19 19 17 16 16 16 14 12 9 7 5 4 4 4 3 3 3 2 0 0 0 0 0 0 0 0 1 2 1 0 0 0 0 0 0 0 0 0
20 19 19 22 23 21 19 18 17 18 18 15 11 10 9 6 4 3 3 3 3 3 1 1 0 0 0 0 0 0 0 1 1 0 0 0 0 0 0 0 0 0 0
19 18 19 23 25 24 20 18 17 16 16 13 10 10 9 7 6 4 3 3 3 3 2 1 0 0 0 0 0 0 0 0 0 0 0 0 0 0 0 0 0 0 0
15 15 17 20 23 23 19 16 16 15 13 12 12 11 10 8 6 5 4 3 3 3 2 1 0 0 0 0 0 0 0 0 0 0 0 0 0 0 0 0 0 0 0
13 13 13 15 17 18 16 14 13 12 12 13 13 11 9 8 6 4 4 3 3 3 2 1 0 0 0 0 0 0 0 0 0 0 0 0 0 0 0 0 0 0 0
11 11 11 10 11 11 11 9 7 7 8 9 9 7 6 6 6 5 4 3 3 3 2 1 0 0 0 0 0 0 0 0 0 0 0 0 0 0 0 0 0 0 0
9 9 8 8 6 5 4 3 2 2 3 3 3 3 3 4 5 4 3 3 3 3 2 1 0 0 0 0 0 0 0 0 0 0 0 0 0 0 0 0 0 0 0
7 7 7 6 4 2 0 0 0 1 1 1 0 1 2 3 2 2 3 3 3 3 2 1 1 0 0 0 0 0 0 0 0 0 0 0 0 0 0 0 0 0 0
6 6 6 6 4 1 0 0 0 0 0 0 0 0 1 1 1 1 2 3 3 3 3 2 2 1 0 0 0 0 0 0 0 0 0 0 0 0 0 0 0 0 0
6 6 6 5 3 1 0 0 0 0 0 0 0 0 0 0 0 0 1 2 3 3 3 3 2 1 0 0 0 0 0 0 0 0 0 0 0 0 0 0 0 0 0
5 5 6 4 2 1 1 1 0 0 0 0 0 0 0 0 0 0 0 1 1 2 3 3 2 1 0 0 0 0 0 0 0 0 0 0 0 0 0 0 0 0 0
3 4 4 3 1 1 1 1 0 0 0 0 0 0 0 0 0 0 0 0 0 1 1 2 2 1 0 0 0 0 0 0 0 0 0 0 0 0 0 0 0 0 0
2 3 3 3 1 0 0 0 0 0 0 0 0 0 0 0 0 0 0 0 0 0 0 1 1 1 0 0 0 0 0 0 0 0 0 0 0 0 0 0 0 0 0
1 2 3 3 2 0 0 0 0 0 0 0 0 0 0 0 0 0 0 0 0 0 0 0 0 1 1 0 0 0 0 0 0 0 0 0 0 0 0 0 0 0 0
0 1 2 2 1 0 0 0 0 0 0 0 0 0 0 0 0 0 0 0 0 0 0 0 0 0 0 0 0 0 0 0 0 0 0 0 0 0 0 0 0 0 0
0 1 1 1 0 0 0 0 0 0 0 0 0 0 0 0 0 0 0 0 0 0 0 0 0 0 0 0 0 0 0 0 0 0 0 0 0 0 0 0 0 0 0
0 0 0 0 0 0 0 0 0 0 0 0 0 0 0 0 0 0 0 0 0 0 0 0 0 0 0 0 0 0 0 0 0 0 0 0 0 0 0 0 0 0 0
0 0 0 0 0 0 0 0 0 0 0 0 0 0 0 0 0 0 0 0 0 0 0 0 0 0 0 0 0 0 0 0 0 0 0 0 0 0 0 0 0 0 0
0 0 0 0 0 0 0 0 0 0 0 0 0 0 0 0 0 0 0 0 0 0 0 0 0 0 0 0 0 0 0 0 0 0 0 0 0 0 0 0 0 0 0
0 0 0 0 0 0 0 0 0 0 0 0 0 0 0 0 0 0 0 0 0 0 0 0 0 0 0 0 0 0 0 0 0 0 0 0 0 0 0 0 0 0 0
0 0 0 0 0 0 0 0 0 0 0 0 0 0 0 0 0 0 0 0 0 0 0 0 0 0 0 0 0 0 0 0 0 0 0 0 0 0 0 0 0 0 0
0 0 0 0 0 0 0 0 0 0 0 0 0 0 0 0 0 0 0 0 0 0 0 0 0 0 0 0 0 0 0 0 0 0 0 0 0 0 0 0 0 0 0
Wind_Speed
3 3 7 9 9 9 9 10 10 10 10 10 10 10 9 9 8 8 8 8 8 8 8 8 8 9 9 9 9 9 9 9 9 9 9 9 9 10 10 10 8 6 11
4 5 8 9 9 9 9 9 9 9 9 9 9 9 9 8 8 7 7 7 7 7 7 7 7 8 8 8 8 8 9 9 8 8 8 6 7 8 9 8 8 5 10
5 5 7 9 9 9 9 9 8 8 8 8 8 8 8 7 7 7 6 6 6 6 6 6 7 7 7 7 7 7 8 8 8 7 7 3 4 7 8 7 7 8 8
5 5 6 9 9 9 9 8 8 8 7 7 7 7 6 6 6 6 6 6 5 5 5 5 5 6 6 6 6 6 6 6 6 6 3 2 2 6 7 6 6 7 7
4 4 5 9 9 9 8 8 8 7 7 6 6 6 6 5 5 5 5 5 5 5 4 4 4 5 5 5 5 5 5 5 5 4 3 2 1 4 5 5 5 6 6
4 4 5 9 9 8 8 7 7 7 7 6 5 5 5 5 4 4 4 4 4 4 4 4 4 4 4 4 4 4 4 5 4 2 2 1 1 3 5 5 5 5 5
5 3 5 8 8 8 7 7 7 6 6 5 5 5 5 4 4 4 3 3 3 3 3 2 2 3 3 3 3 4 4 4 3 2 2 1 2 4 5 4 4 4 4
5 4 4 8 8 7 7 7 6 6 5 5 4 4 4 4 4 4 3 2 2 2 2 2 1 1 2 2 2 3 3 3 3 2 2 2 4 5 5 5 5 5 4
5 5 4 4 5 6 6 6 6 6 5 5 5 4 4 4 3 3 3 2 1 0 0 1 1 1 1 2 2 2 3 3 2 2 3 2 5 6 6 5 5 5 5
6 5 4 4 5 4 4 6 7 7 6 6 6 5 5 4 3 3 2 2 1 1 0 1 1 2 2 2 1 2 2 2 2 2 2 3 6 7 7 6 6 6 6
5 4 4 4 4 4 4 5 6 7 6 6 5 6 5 2 2 2 2 2 2 1 1 1 2 2 2 2 2 2 1 1 3 3 3 6 8 8 8 8 8 7 7
3 3 4 4 4 4 4 4 3 4 4 4 3 3 2 2 2 2 3 3 3 3 2 2 2 2 1 1 1 1 1 2 2 3 4 8 10 10 10 9 9 8 8
3 3 3 3 4 4 3 3 2 2 3 3 3 3 2 2 2 2 1 2 2 2 1 2 2 1 1 1 1 1 2 2 2 3 4 8 10 11 11 11 10 10 10
4 3 3 3 4 4 3 2 2 2 2 2 3 3 2 2 2 2 1 1 1 1 1 1 1 1 1 2 2 2 2 2 2 2 4 7 9 11 11 11 11 11 11
4 3 3 3 3 3 3 3 3 2 2 2 3 3 3 2 2 2 1 1 1 1 1 1 1 2 2 2 2 3 3 3 3 3 3 6 8 10 11 11 11 11 12
3 2 3 3 3 3 3 3 2 3 3 3 3 3 3 2 2 1 1 2 2 2 1 1 2 2 2 2 3 3 4 3 3 4 3 4 7 8 10 11 11 12 12
3 2 2 3 3 3 3 3 3 2 3 3 3 3 3 2 2 2 1 2 2 2 2 1 2 1 2 2 3 3 3 3 3 4 4 3 4 6 9 11 12 11 11
3 3 2 3 4 3 3 3 2 2 3 2 3 3 3 3 3 2 2 2 2 2 2 2 1 1 2 2 2 3 3 3 3 4 3 3 3 3 5 9 10 10 11
4 3 2 2 3 3 3 3 2 2 3 2 2 2 3 4 3 2 2 2 3 2 2 2 1 1 2 2 3 3 2 3 3 3 3 4 4 4 3 5 8 9 9
3 3 3 3 3 3 2 2 2 3 2 2 2 2 3 3 3 2 2 3 3 2 2 2 2 2 2 2 3 3 3 3 3 3 3 3 3 4 3 3 3 5 7
2 2 2 2 2 2 2 1 1 1 1 2 2 3 3 3 3 2 2 3 3 2 3 3 2 2 2 2 2 3 3 3 3 2 2 2 2 2 1 2 2 2 2
3 2 2 2 2 1 1 1 1 0 0 1 1 2 3 3 3 2 2 2 2 2 3 3 2 1 2 2 1 2 3 3 2 2 1 1 1 1 1 1 1 1 1
3 4 3 3 2 1 1 1 1 1 1 2 2 2 3 3 3 2 2 2 2 2 2 2 2 1 2 2 1 1 1 2 3 2 2 1 1 1 1 1 1 1 1
4 3 3 3 2 2 2 2 2 1 0 1 1 2 3 3 3 2 2 2 2 2 2 2 2 2 1 2 2 1 2 2 2 3 2 2 2 1 2 2 1 2 1
3 3 2 2 2 2 2 2 2 1 1 1 1 2 2 2 2 2 2 2 2 2 2 2 2 2 2 2 2 2 2 2 3 3 4 3 2 2 2 2 1 1 1
2 2 2 2 2 2 2 2 2 2 2 1 2 2 2 2 2 2 2 2 2 2 2 2 2 3 3 3 2 2 2 2 2 3 4 4 4 3 2 1 1 1 1
Wind_Direction
166 174 157 140 132 126 120 112 107 103 103 103 108 111 111 110 110 110 108 109 109 106 105 108 106 106 102 101 99 98 95 93 94 92 87 90 96 97 93 89 86 81 90
154 160 150 140 135 129 122 115 109 105 103 105 105 108 110 112 115 115 112 112 111 107 106 107 108 108 107 105 103 101 101 99 98 92 84 82 93 100 98 95 94 92 95
139 148 146 139 134 129 122 117 113 108 105 103 104 102 105 108 108 112 113 114 113 109 109 107 108 109 108 110 110 109 107 108 105 98 91 79 96 107 105 102 102 102 103
130 137 141 136 134 129 125 122 117 112 107 103 101 101 101 106 108 107 104 108 111 109 108 107 108 111 113 115 116 117 113 111 112 105 95 88 93 114 113 111 111 109 110
120 125 133 128 130 126 123 121 118 112 109 105 102 99 101 104 108 109 107 102 101 103 109 112 114 117 117 124 124 127 124 117 108 109 105 100 92 128 121 117 122 115 118
116 116 126 123 125 124 122 119 115 111 108 105 100 98 97 96 103 105 106 106 107 104 106 116 123 125 124 132 140 138 138 128 113 115 125 136 160 151 140 134 138 132 131
117 111 117 113 115 117 117 114 110 108 106 104 101 98 95 91 88 97 101 106 116 120 119 119 130 139 136 137 150 152 143 136 129 139 158 183 214 186 167 162 161 155 148
108 98 102 106 101 106 111 109 107 104 100 97 94 91 88 87 90 95 88 93 116 134 144 152 158 150 165 171 172 168 150 148 148 166 187 207 226 207 188 180 175 174 173
80 84 80 92 91 86 87 94 97 94 86 84 78 74 69 68 81 90 83 73 68 103 164 192 209 214 211 209 197 176 172 167 157 181 201 212 229 217 202 193 189 190 191
66 64 66 73 78 77 74 73 78 79 74 71 65 60 57 58 65 70 69 59 36 10 332 259 239 242 247 252 230 191 177 179 192 201 207 223 225 219 216 211 203 204 205
62 51 53 65 69 70 72 64 64 66 64 64 59 52 51 50 53 60 47 31 10 359 327 307 281 262 259 260 258 231 187 190 204 217 218 233 228 224 224 219 214 214 214
81 58 54 55 66 65 67 59 49 55 52 53 56 52 48 46 41 45 33 25 12 7 350 333 326 307 288 266 264 255 215 213 215 225 228 237 234 231 230 223 219 218 220
109 80 61 56 59 67 64 63 50 47 46 43 44 45 49 48 38 34 31 11 6 6 354 336 336 331 304 268 252 239 233 229 232 235 235 240 242 239 234 229 222 222 223
109 93 68 62 66 65 65 63 61 51 45 40 30 35 49 50 40 24 25 3 9 351 330 328 312 304 293 279 257 248 242 237 238 238 240 243 246 246 242 238 229 227 225
118 105 90 76 74 71 66 56 58 54 52 44 34 31 41 52 39 21 5 2 348 337 311 296 294 295 288 281 272 262 252 246 244 242 244 242 243 248 249 245 238 233 231
135 123 102 84 79 77 71 62 54 52 52 49 41 31 35 42 37 20 8 0 345 327 303 279 276 274 272 271 273 269 266 258 246 244 240 241 240 243 247 248 247 242 239
146 127 116 110 88 78 73 67 63 51 50 48 37 29 27 31 29 18 9 356 335 328 321 304 296 286 284 281 276 274 269 263 256 247 241 238 241 244 245 248 250 248 243
143 131 122 106 96 83 72 64 56 49 51 41 29 22 24 26 25 21 14 348 333 336 331 315 304 294 286 283 281 280 276 268 261 252 246 241 239 245 247 249 251 253 252
155 144 129 106 100 89 74 66 60 51 47 37 32 20 16 19 20 26 11 345 340 344 338 323 316 299 293 299 288 280 273 268 267 262 251 246 239 238 243 248 246 249 253
148 138 128 107 95 89 74 61 49 47 36 31 29 22 17 16 15 20 11 355 351 351 347 337 318 317 295 300 297 292 277 266 261 259 256 253 239 236 243 254 252 253 253
143 140 136 123 108 95 85 80 57 24 14 19 19 17 16 14 10 18 8 357 357 355 343 339 329 328 327 319 317 311 290 260 255 257 254 254 251 244 245 264 263 260 262
172 170 161 155 139 128 123 132 138 155 321 331 352 5 5 5 359 5 6 352 354 347 348 350 343 328 330 352 344 325 320 320 302 274 270 259 274 275 264 275 266 257 260
192 189 178 172 154 147 125 99 79 56 21 5 358 352 347 348 350 349 347 345 345 343 331 335 328 320 312 325 330 272 285 284 313 305 292 290 308 316 306 309 301 290 288
207 193 184 169 157 150 139 133 139 146 210 270 295 311 325 341 341 340 342 340 335 333 320 313 325 307 288 294 298 272 258 278 288 303 308 308 303 292 292 298 287 273 278
193 187 191 170 165 160 153 161 160 188 218 263 301 315 322 328 331 337 335 332 326 317 309 307 307 295 280 266 271 281 278 269 251 262 282 295 300 280 276 266 254 272 280
180 177 184 177 189 176 175 178 180 205 225 264 298 306 310 314 319 328 330 330 320 313 305 299 293 286 279 273 270 263 261 262 259 257 268 282 286 279 279 274 266 276 269